[Date Prev][Date Next][Thread Prev][Thread Next][Date Index][Thread Index]
[jamsat-news:1044] jas2info #123
=========================   最新情報   ==============================
        Last updated :Mon.8-Mar.-1999 16:30 (JST) #123
====================================================================
   
     衛星情報 FOシリーズの軌道要素、テレメトリ、QSOの状況等を
   まとめてみました.
  1)  FO−29(ふじ3号)はJARLのホームページの予告どうり3月8日 
     (土)の13:12(JST)からのパスではJDディジタル運用されており
     ました.テレメトリは力強くRS59+10dBで安定して聞こえました.
       
 ■ 軌道要素1:「jamsatーkeps:867」より
                 SB KEPS @ AMSAT  $ORB99064.N
                 2Line Orbital Elements 99064.AMSAT
  HR AMSAT ORBITAL ELEMENTS FOR AMATEUR SATELLITES IN NASA FORMAT
  FROM WA5QGD FORT WORTH,TX March 5, 1999
  SEND SUBSCRIBE/UNSUBSCRIBE TO majordomo@amsat.org ONLY
  BID: ORB99064.N
     
  DECODE 2-LINE ELSETS WITH THE FOLLOWING KEY:
  1 AAAAAU 00  0  0 BBBBB.BBBBBBBB  .CCCCCCCC  00000-0  00000-0 0  DDDZ
  2 AAAAA EEE.EEEE FFF.FFFF GGGGGGG HHH.HHHH III.IIII JJ.JJJJJJJJKKKKKZ
  KEY: A-CATALOGNUM B-EPOCHTIME C-DECAY D-ELSETNUM E-INCLINATION F-RAAN
  G-ECCENTRICITY H-ARGPERIGEE I-MNANOM J-MNMOTION K-ORBITNUM Z-CHECKSUM
  TO ALL RADIO AMATEURS BT
   FO-29
   1 24278U 96046B   99062.88086394  .00000078  00000-0  11647-3 0 02507
   2 24278 098.5454 028.1601 0351920 006.9889 353.5980 13.52662556125572
 
 ■ 軌道要素2:「jamsatーkeps:868」より
                 SB KEPS @ AMSAT  $ORB99064.O
                 Orbital Elements  99064.OSCAR
  HR AMSAT ORBITAL ELEMENTS FOR OSCAR SATELLITES
  FROM WA5QGD FORT WORTH,TX March 5, 1999
  SEND SUBSCRIBE/UNSUBSCRIBE TO majordomo@amsat.org ONLY
  BID: ORB99064.O
  TO ALL RADIO AMATEURS BT
  Satellite: FO-29
  Catalog number: 24278
  Epoch time:      99062.88086394
  Element set:    0250
  Inclination:      098.5454 deg
  RA of node:       028.1601 deg
  Eccentricity:    0.0351920
  Arg of perigee:   006.9889 deg
  Mean anomaly:     353.5980 deg
  Mean motion:   13.52662556 rev/day
  Decay rate:        7.8e-07 rev/day^2
  Epoch rev:           12557
  Checksum:              346
 -----------------------------------------------------------
 2)FO−29(ふじ3号)の 3月8日(月)のJDディジタルテレメトリの
    一部分は次のようになっていました.
     [  ]に囲まれた時刻は当局の付加したJSTの時刻.
 
  AS12617P   8Mar99
  JST 14:54 - 15:09
  cmd:8J1JCS>BEACON [03/08/99  14:54:34]:
  JAS-2    '97/01/14 01:54:40
  9C 03 63 08 00 55 00 00 02 02
  00 00 08 9F 2B 67 5F 91 8E B0
  AA 52 A8 01 D5 A0 A5 A4 A2 A3
  8J1JCS>BEACON [03/08/99  14:54:35]:95 02 00 09 40 00 C7 40 00 00
  00 00 23 5A 00 89 8E 85 80 81
  00 00 00 95 88 B3 F7 10 35 69
  8J1JCS>BEACON [03/08/99  14:54:36]:
  User not connect.
  8J1JCS>BEACON [03/08/99  14:55:29]:9C 03 63 08 00 55 00 00 02 02
  00 00 08 9F 49 6F 5F 91 8F B0
  AA 52 A8 01 EC 9F A4 A4 A1 A3
  8J1JCS>BEACON [03/08/99  14:55:30]:D5 02 00 09 40 00 C7 40 00 00
  00 00 32 3F 00 88 8D 85 80 81
  00 00 00 95 88 B3 F7 10 35 69
  8J1JCS>BEACON [03/08/99  14:55:53]:9C 03 63 08 00 55 00 00 02 02
  00 00 08 9F 53 74 5F 91 8F B0
  AA 52 A8 01 D5 A0 A4 A4 A1 A3
  8J1JCS>BEACON [03/08/99  14:55:55]:95 02 00 09 40 00 C7 40 00 00
  00 00 32 3F 00 88 8D 85 7F 81
  00 00 00 95 88 B3 F7 10 35 69
  8J1JCS>BEACON [03/08/99  14:55:56]:9C 03 63 08 00 55 00 00 02 02
  00 00 08 9F 53 74 5F 91 8F B0
  AA 52 A7 01 ED A0 A4 A4 A1 A3
  8J1JCS>BEACON [03/08/99  14:55:57]:95 02 00 09 40 00 C7 40 00 00
  00 00 32 3F 00 88 8D 85 7F 81
  00 00 00 95 88 B3 F7 10 35 69
  8J1JCS>BEACON [03/08/99  14:56:31]:9C 03 63 08 00 55 00 00 02 02
  00 00 08 9F 67 6D 5F 91 8F B0
  AB 52 A8 01 EF A0 A4 A4 A1 A3
  8J1JCS>BEACON [03/08/99  14:56:32]:95 02 00 09 40 00 C7 40 00 00
  00 00 32 3F 00 88 8D 85 7F 81
  00 00 00 94 88 B3 F7 10 35 69
  8J1JCS>BEACON [03/08/99  14:56:33]:9C 03 63 08 00 55 00 00 02 02
  00 00 08 9F 67 6C 5F 91 8E B0
  AA 52 A8 01 D5 A0 A4 A4 A1 A3
  8J1JCS>BEACON [03/08/99  14:56:35]:95 02 00 09 40 00 C7 40 00 00
  00 00 32 3F 00 88 8D 85 7F 81
  00 00 00 94 88 B3 F7 10 35 69
  8J1JCS>BEACON [03/08/99  14:56:36]:
  JAS-2    '97/01/14 01:56:40
  9C 03 63 08 00 55 00 00 02 02
  00 00 08 9F 67 71 5F 91 8F B0
  AB 52 A7 01 D5 A0 A4 A4 A1 A2
  8J1JCS>BEACON [03/08/99  14:56:37]:95 02 00 09 40 00 C7 40 00 00
  00 00 32 3F 00 88 8D 85 7F 81
  00 00 00 94 88 B3 F7 10 35 69
  8J1JCS>BEACON [03/08/99  14:56:38]:
  User not connect.
  8J1JCS>BEACON [03/08/99  14:57:20]:9C 03 63 08 00 55 00 00 02 02
  00 00 08 9F 80 79 5F 91 8F B0
  AB 52 A8 01 ED A0 A4 A3 A1 A2
  8J1JCS>BEACON [03/08/99  14:57:21]:55 02 00 09 40 00 C7 40 00 00
  00 00 44 1E 00 88 8D 86 7F 81
  00 00 00 94 88 B3 F7 10 35 69
  8J1JCS>BEACON [03/08/99  14:57:41]:9C 03 63 08 00 55 00 00 02 02
  00 00 08 9F 8A 7E 5F 92 8F B0
  AA 52 A8 01 D5 A0 A4 A3 A1 A2
  8J1JCS>BEACON [03/08/99  14:57:42]:95 02 00 09 40 00 C7 40 00 00
  00 00 44 1E 00 88 8D 85 80 82
  00 00 00 94 88 B3 F7 10 35 69
  8J1JCS>BEACON [03/08/99  14:57:52]:9C 03 63 08 00 56 00 00 02 02
  00 00 08 9F 8F 7B 5F 92 8F B0
  AB 52 A8 01 D5 A0 A4 A4 A1 A2
  8J1JCS>BEACON [03/08/99  14:57:53]:95 02 04 09 40 00 C7 40 00 00
  00 00 3D 1E 00 88 8D 85 7F 81
  00 00 00 94 88 B3 F7 10 35 69
  8J1JCS>BEACON [03/08/99  14:58:16]:9C 03 63 08 00 57 00 00 02 02
  00 00 08 9F 9E 76 5F 92 8F B0
  AA 52 A8 01 D6 A0 A4 A3 A1 A2
  8J1JCS>BEACON [03/08/99  14:58:17]:D5 02 00 09 40 00 C7 40 00 00
  00 00 44 1E 00 88 8D 85 7F 81
  00 00 00 94 88 B3 F7 10 35 69
  8J1JCS>BEACON [03/08/99  14:58:19]:D5 02 00 09 40 00 C7 40 00 00
  00 00 44 1E 00 88 8D 85 7F 81
  00 00 00 94 88 B3 F7 10 35 69
  8J1JCS>BEACON [03/08/99  14:59:27]:9C 03 63 08 00 58 00 00 02 02
  00 00 08 9F C1 7E 5F 92 8F B0
  AA 52 A8 01 CF A0 A4 A3 A1 A2
  8J1JCS>BEACON [03/08/99  14:59:28]:95 02 00 09 40 00 C7 40 00 00
  00 00 3D 1E 00 88 8D 86 7F 82
  00 00 00 94 88 B3 F7 10 35 69
  8J1JCS>BEACON [03/08/99  14:59:29]:9C 03 63 08 00 58 00 00 02 02
  00 00 08 9F C1 7E 5F 92 8F B0
  AA 52 A8 01 D6 A0 A4 A3 A1 A2
  8J1JCS>BEACON [03/08/99  14:59:31]:95 02 00 09 40 00 C7 40 00 00
  00 00 3D 1E 00 88 8D 86 7F 82
  00 00 00 94 88 B3 F7 10 35 69
  8J1JCS>BEACON [03/08/99  14:59:32]:9C 03 63 08 00 58 00 00 02 02
  00 00 08 9F C1 7E 5F 92 8F B0
  AA 52 A8 01 D6 A0 A4 A3 A1 A2
  8J1JCS>BEACON [03/08/99  14:59:33]:95 02 00 09 40 00 C7 40 00 00
  00 00 3D 1E 00 88 8D 86 7F 82
  00 00 00 94 88 B3 F7 10 35 69
  8J1JCS>BEACON [03/08/99  15:00:02]:9C 03 63 08 00 59 00 00 02 02
  00 00 08 9F D0 73 5F 92 8F B0
  AA 52 A8 01 C8 A0 A4 A3 A1 A2
  8J1JCS>BEACON [03/08/99  15:00:03]:95 02 04 09 40 00 C7 40 00 00
  00 00 48 17 00 87 8C 86 7F 81
  00 00 00 94 89 B3 F7 10 35 69
  8J1JCS>BEACON [03/08/99  15:00:27]:9C 03 63 08 00 5B 00 00 02 02
  00 00 2B AC E3 79 5F 92 8F B0
  AA 52 A8 01 ED A0 A4 A3 A0 A2
  8J1JCS>BEACON [03/08/99  15:00:29]:9C 03 63 08 00 5B 00 00 02 02
  00 00 2B AC E3 79 5F 92 8F B0
  AA 52 A8 01 EE A0 A4 A3 A1 A2
  8J1JCS>BEACON [03/08/99  15:00:31]:95 02 00 09 40 00 C7 40 00 00
  00 00 44 17 00 87 8C 86 7F 81
  00 00 00 94 89 B3 F7 10 35 69
  8J1JCS>BEACON [03/08/99  15:00:34]:
  JAS-2    '97/03/08 06:10:24
  9C 03 63 08 00 5B 00 00 02 02
  00 00 2B AC E3 7B 5F 92 8F B0
  AB 52 A8 01 EE A0 A4 A3 A0 A2
  8J1JCS>BEACON [03/08/99  15:00:35]:95 02 00 09 40 00 C7 40 00 00
  00 00 44 17 00 87 8C 86 7F 81
  00 00 00 94 89 B3 F7 10 35 69
  8J1JCS>BEACON [03/08/99  15:00:36]:
  User not connect.
 
3)  JDディジタルテレメトリの最初のブロックの換算例.
   テレメトリ	    内   容	               換算値  単 位
 F1ー12	磁気センサーX軸 	=	17156.9	nT
 F1ー13	磁気センサーZ軸 	=	44117.6	nT
 F0ー15	太陽電池発生電流 	=	 1009.8	mA
 F0ー16	B充放電電流 	        =	  138.0	mA
 F0ー17	B端子電圧	        =	   15.6	V
 F0ー18	B中間端子電圧	        =	    6.8	V
 F0ー19	バス電圧 	        =	   17.3	V
 F0ー20	+5安定化電圧	        =	    5.1	V
 F0ー21	ー5V安定化電圧         	=	   -4.9	V
 F0ー22	+10V安定化電圧       =	   10.1	V
 F0ー23	JTA出力電力           =	  -91.6	mW
 F0ー24	JTD出力電力	        =	 1456.5	mW
 F0ー25	Bセル温度   	        =	   19.7	℃
 F0ー26	構体温度ー1	        =	   17.8	℃
 F0ー27	構体温度ー2	        =	   18.2	℃
 F0ー28	構体温度ー3	        =	   19.0	℃
 F0ー29	構体温度ー4	        =	   18.6	℃
 F1ー18	太陽電池パネル温度ー1	=	    6.6	℃
 F1ー19	太陽電池パネル温度ー2	=	    8.9	℃
 F1ー24	太陽電池パネル温度ー3	=	   24.7	℃
 F1ー23	JTD  Tr温度 	=	   24.0	℃
  
 *計算処理は OFFICE 97 を使用.
 
=====================  FO/29(JAS−2)の訂正======================
    JAS2INFO #120、#121のデジトーカで「郭公の鳴き声」とありましたが
  「うぐいすの鳴き声」の誤りでした、この事についてJE9PEL/1 脇田 美根夫氏が
   [jamsat-bb:422]に投稿されてましたのでご紹介します.
 
 FO-29のデジトーカは、以前は『カッコー』の鳴き声でしたが、
 本日(3/2)聞いたところ綺麗な『ウグイス』の鳴き声でした。
 違法FM局を押し退け、女性の声と『ウグイス』の声が何度も
 繰り返し聞こえておりました。(435.910MHz FM)
 ★ This is JAS-2. ホーホケキョ! This is JAS-2. ホーホケキョ!.....
 ----------------------------------------------
 Name : JE9PEL/1 脇田
 Mail : JE9PEL@jamsat.or.jp
 URL  : http://www.ne.jp/asahi/hamradio/je9pel/
 QTH  : Yokohama, Japan
 Date : 2 Mar. 1999
 ----------------------------------------------
===============================================================================
  4)FO−20(ふじ2号)のCWテレメトリは1月30日(土)19:37(JST)の
     パスではやはり単一トーンの連続音から唸りを伴った連続音になっいましたがQSOは
     通常どうり使え、JA7CIA局等のCQが聞こえました.
---------------------------------------------------------------------------
 ■ 軌道要素1 :出典は「ふじ3号」に同じ. 
  
 FO-20
  1 20480U 90013C   99063.16250546  .00000025  00000-0  12408-3 0 01316
  2 20480 099.0352 277.8353 0541143 042.6342 321.5467 12.83250316424861
 ■ 軌道要素2 :出典は「ふじ3号」に同じ.  
               
  Satellite: FO-20
  Catalog number: 20480
  Epoch time:      99063.16250546
  Element set:    0131
  Inclination:      099.0352 deg
  RA of node:       277.8353 deg
  Eccentricity:    0.0541143
  Arg of perigee:   042.6342 deg
  Mean anomaly:     321.5467 deg
  Mean motion:   12.83250316 rev/day
  Decay rate:        2.5e-07 rev/day^2
  Epoch rev:           42486
  Checksum:              280
  ====================    FO-20のQSOの状況 ==========================
  =====================================================================
 5)JARL のホームページに新しい運用追加予定が記載されていましたのでご紹介します.
        ■ ふじ3号/FO−29 ■  
  
